レモン彗星

C/2019 T2 ( Lemmon )

English version
Home page
Updated on August 15, 2020

---------------------------------------------------------------------

・ プロフィール

発見日 2019年10月9日
発見光度 20.6等
発見者 Mt. Lemmon Survey

・ 写真集

・ 軌道要素

Epoch 2021 Apr. 16.0 TT = JDT 2459320.5
T 2021 Apr. 22.28107 TT                                 Rudenko
q   2.6459906            (2000.0)            P               Q
z  +0.0005242      Peri.  239.38626     +0.33389291     -0.86095517
 +/-0.0000027      Node   155.64244     -0.13766730     +0.35821866
e   0.9986129      Incl.  111.48934     -0.93250375     -0.36115868
From 233 observations 2019 Aug. 26-2020 Aug. 3, mean residual 0".5.

・ 星図

・ 光度変化

        m1 = 8.0 + 5 logΔ + 11.0 log r

---------------------------------------------------------------------

軌道要素はM.P.E.C. 2020-P19に掲載されたものです。
星図はステラナビゲータ Ver.10 (アストロアーツ) で作成したものです。
光度グラフはComet for Windowsで作成したものです。

---------------------------------------------------------------------

Copyright(C) Seiichi Yoshida (comet@aerith.net). All rights reserved.